Regional Weather Roundup
Issued by NWS

Home | Current Version | Previous Version | Text Only | Print | Product List | Glossary On
Versions: 1 2 3 4 5 6 7 8 9 10 11 12 13 14 15 16 17 18 19 20 21 22 23 24 25 26 27 28 29 30 31 32 33 34 35 36 37 38 39 40 41 42 43 44 45 46 47 48 49 50
794
ASUS42 KKEY 291310
RWRKEY

FLORIDA REGIONAL WEATHER ROUNDUP FOR THE FLORIDA KEYS
NATIONAL WEATHER SERVICE KEY WEST FLORIDA
900 AM EDT WED MAR 29 2017

...SOUTH FLORIDA AND THE KEYS...

CITY           SKY/WX    TMP DP  RH WIND       PRES   REMARKS
FORT MYERS     SUNNY     71  65  81 S3        30.02R
SW REGIONAL AP MOSUNNY   67  63  87 CALM      30.03R
NAPLES         SUNNY     71  66  84 CALM      30.03R
MIAMI          MOSUNNY   77  65  67 VRB5      30.03R
WEST KENDALL   SUNNY     74  67  78 CALM      30.03R
HOMESTEAD      SUNNY     74  69  82 CALM      30.03R
MARATHON       SUNNY     79  67  66 SE6       30.02R
BOCA CHICA NAS MOSUNNY   77  64  64 SE12      30.02R
KEY WEST INTL  SUNNY     77  65  66 SE10      30.02R

...INTERNATIONAL WEATHER...

CITY           SKY/WX    TMP DP  RH WIND       PRES   REMARKS
NASSAU BAHAMAS PTSUNNY   75  64  69 E3        30.06R
CANCUN MEXICO  MOSUNNY   77  68  73 SE14      29.92R
COZUMEL MEXICO MOSUNNY   77  72  83 SE8       29.90S

ADJACENT COASTAL WATERS...

STATION/POSITION TIME  SKY/WX   TEMP    WIND        PRES    WAVE
                                AIR SEA DIR/SP/G            HT/PER
                 (UTC)          (F)     (DEG/KT/KT) (MB)    (FT/S)
PULASKI SHOAL LI 1300            74     100/ 11/ 12 1016.2R
SAND KEY         1250            76     150/ 14/ 17 1016.9R
LONG KEY         1200            75 77  150/  5/  6 1016.6R
MOLASSES REEF    1100            75 78   CALM  /  2 1016.4
FOWEY ROCKS      1200            75 76  130/  8/  9 1017.0R
Buoy 42097       1300                                 N/A     1/ 3

$$




USA.gov is the U.S. government's official web portal to all federal, state and local government web resources and services.